EW4927 Weather Reports


Display with metric or nautical units.
time (UTC)temp
F
wind
direction
speed
MPH
gust
MPH
rain 1hr
in
rain 24hr
in
rain mn
in
humidity
%
barometer
mb
20260505124611 59 0 0.0 0.0 0.00 0.00 0.00 58 1014.6
20260505123609 57 0 0.0 0.0 0.00 0.00 0.00 57 1014.8
20260505122610 56 0 0.0 0.0 0.00 0.00 0.00 57 1014.8
20260505121609 56 0 0.0 0.0 0.00 0.00 0.00 57 1014.9
20260505120607 56 0 0.0 0.0 0.00 0.00 0.00 60 1015.0
20260505115606 55 0 0.0 0.0 0.00 0.00 0.00 59 1015.0
20260505114607 56 0 0.0 0.0 0.00 0.00 0.00 60 1015.0
20260505113607 56 0 0.0 0.0 0.00 0.00 0.00 63 1015.0
20260505112607 57 0 0.0 0.0 0.00 0.00 0.00 62 1015.1
20260505111604 57 0 0.0 0.0 0.00 0.00 0.00 63 1015.1
20260505101603 55 0 0.0 0.0 0.00 0.00 0.00 65 1015.3
20260505100601 56 0 0.0 0.0 0.00 0.00 0.00 63 1015.2
20260505094601 56 0 0.0 0.0 0.00 0.00 0.00 60 1015.1
20260505093600 58 0 0.0 0.0 0.00 0.00 0.00 60 1015.1
20260505092558 57 0 0.0 0.0 0.00 0.00 0.00 60 1015.2
20260505091557 56 0 0.0 0.0 0.00 0.00 0.00 59 1015.3
20260505090557 58 0 0.0 0.0 0.00 0.00 0.00 58 1015.3
20260505085559 57 0 0.0 0.0 0.00 0.00 0.00 63 1015.3
20260505084557 56 0 0.0 0.0 0.00 0.00 0.00 59 1015.3
20260505082555 58 0 0.0 0.0 0.00 0.00 0.00 60 1015.4
20260505081555 58 0 0.0 0.0 0.00 0.00 0.00 64 1015.3
20260505075555 57 0 0.0 0.0 0.00 0.00 0.00 68 1015.4
20260505073554 55 0 0.0 0.0 0.00 0.00 0.00 78 1015.4
20260505072551 53 0 0.0 0.0 0.00 0.00 0.00 78 1015.5
20260505071550 52 0 0.0 0.0 0.00 0.00 0.00 88 1015.5
20260505070551 49 0 0.0 0.0 0.00 0.00 0.00 92 1015.5
20260505065549 47 0 0.0 0.0 0.00 0.00 0.00 96 1015.5
20260505064548 46 0 0.0 0.0 0.00 0.00 0.00 96 1015.6
20260505063548 46 0 0.0 0.0 0.00 0.00 0.00 96 1015.7
20260505062547 46 0 0.0 0.0 0.00 0.00 0.00 96 1015.6
20260505061547 47 0 0.0 0.0 0.00 0.00 0.00 96 1015.5
20260505055546 47 0 0.0 0.0 0.00 0.00 0.00 97 1015.4
20260505054545 47 0 0.0 0.0 0.00 0.00 0.00 96 1015.4
20260505053545 47 0 0.0 0.0 0.00 0.00 0.00 96 1015.4
20260505051544 47 0 0.0 0.0 0.00 0.00 0.00 97 1015.1
20260505050544 47 0 0.0 0.0 0.00 0.00 0.00 97 1015.2
20260505041540 47 0 0.0 0.0 0.00 0.00 0.00 97 1015.0
20260505040541 47 0 0.0 0.0 0.00 0.00 0.00 96 1015.0
20260504224543 49 0 0.0 0.0 0.00 0.00 0.00 94 1015.6
20260504223543 48 0 0.0 0.0 0.00 0.00 0.00 94 1015.6
20260504222542 48 0 0.0 0.0 0.00 0.00 0.00 93 1015.6
20260504221541 49 0 0.0 0.0 0.00 0.00 0.00 93 1015.6
20260504220541 49 0 0.0 0.0 0.00 0.00 0.00 93 1015.7
20260504215645 49 0 0.0 0.0 0.00 0.00 0.00 93 1015.7
20260504214644 50 0 0.0 0.0 0.00 0.00 0.00 92 1015.8
20260504211642 51 0 0.0 0.0 0.00 0.00 0.00 91 1016.0
20260504210640 51 0 0.0 0.0 0.00 0.00 0.00 90 1015.9
20260504205639 52 0 0.0 0.0 0.00 0.00 0.00 90 1015.9
20260504204638 52 0 0.0 0.0 0.00 0.00 0.00 90 1015.9
20260504203639 52 0 0.0 0.0 0.00 0.00 0.00 90 1015.7
20260504202637 52 0 0.0 0.0 0.00 0.00 0.00 89 1015.7
20260504201637 53 0 0.0 0.0 0.00 0.00 0.00 87 1015.6
20260504200639 53 0 0.0 0.0 0.00 0.00 0.00 87 1015.5
20260504194635 54 0 0.0 0.0 0.00 0.00 0.00 86 1015.4
20260504192633 54 0 0.0 0.0 0.00 0.00 0.00 86 1015.2
20260504191635 55 0 0.0 0.0 0.00 0.00 0.00 85 1015.1
20260504190634 55 0 0.0 0.0 0.00 0.00 0.00 84 1015.0
20260504184633 56 0 0.0 0.0 0.00 0.00 0.00 83 1015.0
20260504183632 56 0 0.0 0.0 0.00 0.00 0.00 83 1014.9
20260504182630 56 0 0.0 0.0 0.00 0.00 0.00 82 1014.8
20260504181629 56 0 0.0 0.0 0.00 0.00 0.00 81 1014.7
20260504180629 57 0 0.0 0.0 0.00 0.00 0.00 81 1014.6
20260504175629 57 0 0.0 0.0 0.00 0.00 0.00 80 1014.7
20260504174629 58 0 0.0 0.0 0.00 0.00 0.00 79 1014.7
20260504173628 58 0 0.0 0.0 0.00 0.00 0.00 77 1014.7
20260504172627 59 0 0.0 0.0 0.00 0.00 0.00 76 1014.7
20260504170625 60 0 0.0 0.0 0.00 0.00 0.00 75 1014.6
20260504150618 66 0 0.0 0.0 0.00 0.06 0.00 59 1014.4
20260504140617 65 0 0.0 0.0 0.00 0.09 0.00 65 1014.6
20260504130614 64 0 0.0 0.0 0.00 0.09 0.00 67 1014.7